Location: Bh?mavarapp?du
(16.7041°N, 80.6518°E)
Time: 07:34:17
(UTC+00:00)

Cosmos 2233 Rocket - Pass Details

Date: 21 April 2021
Orbit: 954 x 990 km, 82.9° (Epoch: 06 May)

Event Time Altitude Azimuth Distance (km) Brightness Sun altitude
Rises 23:43:58 0° 358° (N) 3,673 7.2 -8.6°
Reaches altitude 10° 23:46:29 10° 360° (N) 2,720 6.5 -8.0°
Maximum altitude 23:52:43 77° 86° (E) 993 4.3 -6.6°
Drops below altitude 10° 23:58:52 10° 172° (S) 2,690 6.3 -5.2°
Sets 00:01:21 0° 173° (S) 3,631 6.9 -4.6°
